Location: Banff
(51.1667°N, 115.5667°W)
Time: 13:56:05
(UTC+00:00)

Vanguard 1 - Pass Details

Date: 28 November 2020
Orbit: 649 x 3834 km, 34.3° (Epoch: 15 January)

Event Time Altitude Azimuth Distance (km) Brightness Sun altitude
Exits shadow 12:34:03 - 200° (SSW) 3,095 12.5 -25.3°
Reaches altitude 10° 12:35:32 10° 189° (S) 2,841 12.4 -25.0°
Maximum altitude 12:39:56 18° 149° (SSE) 2,796 12.7 -24.3°
Drops below altitude 10° 12:45:56 10° 112° (ESE) 4,073 14.2 -23.4°
Sets 12:51:45 0° 97° (E) 5,754 15.5 -22.5°
